�N����,����,�~����,�C��,���x,�C��,����,���ϕ���,�ő�u�ԕ���,�ő厞����,���˗�,�I�_���x,�n�����x,�ő啗���N��,DTYPE
"16/08/03","00:10",0.0,24.1,83.9,1002.2,331.3,1.1,2.5,345.2,0.00,21.2,26.5,"00:01:52",1
"16/08/03","00:20",0.0,24.1,84.1,1002.2,320.9,1.2,2.9,346.2,0.00,21.3,26.6,"00:12:24",1
"16/08/03","00:30",0.0,24.1,83.9,1002.6,329.1,1.2,2.1,328.5,0.00,21.2,26.8,"00:20:16",1
"16/08/03","00:40",0.0,24.1,84.2,1002.2,338.4,1.5,2.9,338.9,0.00,21.3,26.7,"00:33:12",1
"16/08/03","00:50",0.0,23.9,84.6,1002.4,311.7,1.0,1.3,314.0,0.00,21.2,26.6,"00:41:28",1
"16/08/03","01:00",0.0,23.9,84.7,1002.4,306.5,0.8,1.3,323.1,0.00,21.2,26.4,"00:51:20",1
"16/08/03","01:10",0.0,23.7,84.8,1002.2,300.8,0.8,1.3,308.8,0.00,21.0,26.6,"01:08:32",1
"16/08/03","01:20",0.0,23.7,84.9,1002.4,318.3,1.1,2.7,355.6,0.00,21.0,26.5,"01:10:02",1
"16/08/03","01:30",0.0,23.7,84.9,1002.6,325.8,1.2,2.2,337.7,0.00,21.0,26.1,"01:29:36",1
"16/08/03","01:40",0.0,23.8,85.2,1002.2,316.6,1.1,2.2,338.0,0.00,21.2,26.3,"01:31:04",1
"16/08/03","01:50",0.0,23.6,85.5,1002.2,324.3,1.1,1.7,343.4,0.00,21.1,26.2,"01:44:32",1
"16/08/03","02:00",0.0,23.5,85.7,1002.2,328.6,1.2,2.4,349.3,0.00,21.0,26.0,"01:56:16",1
"16/08/03","02:10",0.0,23.5,86.0,1001.9,316.7,1.1,2.6,355.0,0.00,21.1,26.1,"02:00:08",1
"16/08/03","02:20",0.0,23.4,86.0,1001.9,311.0,1.1,2.0,341.4,0.00,21.0,25.9,"02:19:44",1
"16/08/03","02:30",0.0,23.4,86.2,1001.9,321.7,1.2,2.5,343.2,0.00,21.0,26.1,"02:20:02",1
"16/08/03","02:40",0.0,23.4,86.4,1002.4,325.7,1.2,2.4,339.8,0.00,21.0,26.0,"02:33:36",1
"16/08/03","02:50",0.0,23.4,86.6,1002.2,332.7,1.3,2.4,353.4,0.00,21.1,25.9,"02:48:08",1
"16/08/03","03:00",0.0,23.4,86.5,1002.4,337.1,1.6,2.9,350.5,0.00,21.1,25.9,"02:54:08",1
"16/08/03","03:10",0.0,23.4,86.7,1001.9,331.3,1.3,2.7,341.5,0.00,21.1,25.9,"03:03:20",1
"16/08/03","03:20",0.0,23.2,87.0,1002.2,339.0,1.6,2.8,322.9,0.00,21.0,25.9,"03:11:36",1
"16/08/03","03:30",0.0,23.1,87.1,1002.6,333.0,1.5,3.2,5.2,0.00,20.9,25.7,"03:20:24",1
"16/08/03","03:40",0.0,23.1,87.7,1002.4,316.2,1.3,2.1,348.6,0.00,21.0,25.9,"03:36:56",1
"16/08/03","03:50",0.0,23.0,87.9,1002.4,320.2,1.5,2.4,322.2,0.00,20.9,25.7,"03:48:00",1
"16/08/03","04:00",0.0,23.0,88.0,1002.2,318.2,1.6,3.1,352.2,0.00,20.9,25.8,"03:59:52",1
"16/08/03","04:10",0.0,23.0,88.2,1002.4,323.1,1.5,3.3,342.3,0.00,21.0,25.8,"04:00:24",1
"16/08/03","04:20",0.0,23.0,88.2,1002.4,325.4,1.3,1.9,342.1,0.00,21.0,25.5,"04:18:08",1
"16/08/03","04:30",0.0,22.9,88.5,1002.6,316.8,1.2,2.1,330.9,0.00,20.9,25.6,"04:20:02",1
"16/08/03","04:40",0.0,22.9,88.6,1002.6,324.1,1.5,2.6,336.8,0.00,21.0,25.5,"04:35:20",1
"16/08/03","04:50",0.0,22.9,88.8,1002.4,328.7,1.6,2.7,334.1,0.00,21.0,25.6,"04:41:36",1
"16/08/03","05:00",0.0,22.8,89.0,1002.9,314.8,1.3,2.1,320.6,0.00,20.9,25.5,"04:54:48",1
"16/08/03","05:10",0.0,22.9,89.0,1002.6,329.0,1.6,3.5,346.2,0.00,21.0,25.6,"05:03:44",1
"16/08/03","05:20",0.0,22.9,89.1,1002.9,328.5,1.5,2.2,334.9,0.00,21.0,25.5,"05:15:44",1
"16/08/03","05:30",0.0,22.9,89.2,1002.9,324.5,1.3,2.0,322.0,0.00,21.1,25.3,"05:28:16",1
"16/08/03","05:40",0.0,23.1,89.2,1003.1,317.7,1.2,2.5,357.2,0.00,21.3,25.3,"05:36:24",1
"16/08/03","05:50",0.0,23.3,88.7,1003.4,327.7,1.3,2.9,337.9,0.00,21.4,25.4,"05:43:44",1
"16/08/03","06:00",0.0,23.4,88.5,1003.4,331.2,1.2,2.6,354.8,0.01,21.4,25.2,"05:57:44",1
"16/08/03","06:10",0.0,23.6,88.2,1003.4,335.1,1.2,3.1,5.8,0.02,21.6,25.5,"06:07:44",1
"16/08/03","06:20",0.0,23.8,87.3,1003.4,327.9,1.0,2.2,340.7,0.02,21.6,25.2,"06:13:52",1
"16/08/03","06:30",0.0,23.9,86.4,1003.4,320.5,0.7,1.6,356.2,0.02,21.5,25.3,"06:21:44",1
"16/08/03","06:40",0.0,24.3,85.9,1003.6,323.4,0.7,1.8,336.8,0.04,21.8,25.3,"06:30:16",1
"16/08/03","06:50",0.0,24.8,84.9,1003.4,317.9,0.8,2.0,23.3,0.06,22.1,25.5,"06:45:36",1
"16/08/03","07:00",0.0,25.6,83.3,1003.6,325.4,0.6,1.7,350.0,0.09,22.6,25.6,"06:56:08",1
"16/08/03","07:10",0.0,25.5,81.5,1003.4,339.8,1.1,2.4,345.1,0.09,22.1,25.7,"07:07:36",1
"16/08/03","07:20",0.0,25.9,81.9,1003.4,348.4,0.8,1.9,2.1,0.11,22.6,25.5,"07:10:32",1
"16/08/03","07:30",0.0,26.0,79.2,1003.4,359.7,0.8,2.5,355.7,0.11,22.2,25.7,"07:26:56",1
"16/08/03","07:40",0.0,26.6,78.5,1002.9,358.8,0.5,2.5,0.9,0.13,22.6,25.7,"07:30:08",1
"16/08/03","07:50",0.0,26.9,76.1,1003.1,359.0,0.8,2.4,357.0,0.17,22.4,25.9,"07:48:32",1
"16/08/03","08:00",0.0,28.2,74.4,1003.1,349.9,0.5,2.5,0.4,0.23,23.3,26.0,"07:50:16",1
"16/08/03","08:10",0.0,27.9,72.1,1002.9,10.1,0.8,2.4,350.3,0.23,22.4,26.1,"08:01:44",1
"16/08/03","08:20",0.0,28.7,70.3,1002.9,45.5,0.3,1.3,0.0,0.26,22.8,25.9,"08:10:40",1
"16/08/03","08:30",0.0,28.3,71.5,1003.4,158.8,0.6,1.1,182.7,0.19,22.7,26.2,"08:24:00",1
"16/08/03","08:40",0.0,28.4,71.7,1003.6,118.0,0.6,1.8,31.8,0.23,22.8,26.5,"08:37:20",1
"16/08/03","08:50",0.0,29.1,70.0,1003.6,132.9,0.3,1.2,115.2,0.27,23.1,26.5,"08:49:36",1
"16/08/03","09:00",0.0,29.2,67.5,1004.3,154.3,0.7,1.9,128.5,0.32,22.6,26.7,"08:50:24",1
"16/08/03","09:10",0.0,29.6,66.9,1004.5,135.9,0.6,1.3,152.1,0.35,22.8,26.8,"09:04:48",1
"16/08/03","09:20",0.0,30.3,64.9,1004.8,22.3,0.5,1.2,359.7,0.34,23.0,27.1,"09:13:44",1
"16/08/03","09:30",0.0,30.7,61.9,1004.8,49.5,0.3,1.2,350.7,0.40,22.6,27.4,"09:21:44",1
"16/08/03","09:40",0.0,30.7,63.1,1005.5,83.2,0.7,1.9,1.5,0.39,22.9,27.4,"09:39:20",1
"16/08/03","09:50",0.0,30.9,62.0,1005.0,40.6,0.7,2.2,350.5,0.40,22.8,27.6,"09:43:52",1
"16/08/03","10:00",0.0,31.1,63.6,1005.0,44.0,0.6,1.6,359.3,0.38,23.4,27.7,"09:52:08",1
"16/08/03","10:10",0.0,31.4,60.5,1005.2,160.6,0.5,1.2,211.5,0.45,22.9,28.1,"10:08:56",1
"16/08/03","10:20",0.0,31.6,61.7,1005.2,26.0,0.8,1.9,0.2,0.43,23.4,28.2,"10:14:48",1
"16/08/03","10:30",0.0,31.5,61.4,1005.0,359.1,1.1,2.7,333.1,0.47,23.2,28.4,"10:24:40",1
"16/08/03","10:40",0.0,31.9,59.4,1004.8,4.5,0.6,2.0,49.5,0.48,23.0,28.7,"10:30:02",1
"16/08/03","10:50",0.0,32.1,56.2,1004.8,66.4,0.8,2.0,38.6,0.52,22.3,28.8,"10:47:20",1
"16/08/03","11:00",0.0,32.8,54.7,1004.8,86.8,0.6,2.0,131.1,0.55,22.5,28.9,"10:59:44",1
"16/08/03","11:10",0.0,32.0,58.9,1004.8,148.0,0.7,2.8,13.6,0.38,23.0,29.2,"11:09:12",1
"16/08/03","11:20",0.0,31.3,59.6,1004.8,284.3,0.6,2.2,227.6,0.22,22.5,29.4,"11:18:48",1
"16/08/03","11:30",0.0,31.3,61.0,1004.5,194.3,0.8,2.7,223.7,0.29,22.9,29.2,"11:24:08",1
"16/08/03","11:40",0.0,31.3,63.4,1003.8,235.2,0.3,1.9,4.8,0.19,23.6,29.6,"11:37:12",1
"16/08/03","11:50",0.0,30.8,62.8,1004.1,278.3,0.6,2.1,225.9,0.16,22.9,29.6,"11:49:20",1
"16/08/03","12:00",0.0,30.7,60.9,1003.4,214.4,0.8,3.3,228.9,0.13,22.3,29.3,"11:59:04",1
"16/08/03","12:10",0.0,31.0,65.1,1002.9,233.1,0.6,1.8,190.9,0.20,23.7,29.4,"12:00:16",1
"16/08/03","12:20",0.0,32.9,54.1,1003.1,84.3,0.8,1.7,13.6,0.60,22.4,29.6,"12:17:04",1
"16/08/03","12:30",0.0,33.4,55.3,1003.6,67.0,0.7,1.9,16.3,0.54,23.3,29.9,"12:28:08",1
"16/08/03","12:40",0.0,31.9,57.8,1003.4,239.8,1.5,3.7,220.2,0.35,22.6,29.7,"12:39:28",1
"16/08/03","12:50",0.0,32.3,55.5,1003.1,197.2,1.0,3.7,221.9,0.34,22.3,30.0,"12:40:08",1
"16/08/03","13:00",0.0,34.0,56.1,1003.1,196.2,0.8,2.4,226.1,0.48,24.0,30.1,"12:51:44",1
"16/08/03","13:10",0.0,33.5,54.4,1003.4,232.7,0.7,1.9,216.0,0.39,23.1,30.2,"13:03:12",1
"16/08/03","13:20",0.0,33.2,53.8,1003.1,17.6,0.8,1.9,3.0,0.38,22.6,30.2,"13:12:56",1
"16/08/03","13:30",0.0,32.8,53.1,1002.9,105.7,0.7,2.5,10.2,0.36,22.0,30.2,"13:20:16",1
"16/08/03","13:40",0.0,32.5,55.2,1003.1,294.2,0.8,2.9,347.5,0.21,22.4,30.0,"13:33:12",1
"16/08/03","13:50",0.0,33.5,54.2,1003.1,3.6,0.7,2.5,48.0,0.42,23.0,30.2,"13:45:36",1
"16/08/03","14:00",0.0,33.8,52.9,1002.9,348.4,0.5,2.6,352.3,0.38,22.9,30.4,"13:55:04",1
"16/08/03","14:10",0.0,32.3,56.3,1002.6,285.2,0.6,1.6,357.6,0.14,22.5,30.3,"14:02:32",1
"16/08/03","14:20",0.0,33.3,58.1,1002.4,208.9,0.3,1.2,212.8,0.29,24.0,30.2,"14:13:52",1
"16/08/03","14:30",0.0,32.9,59.5,1002.4,290.4,0.5,2.4,6.1,0.24,24.0,30.3,"14:24:16",1
"16/08/03","14:40",0.0,33.8,54.0,1002.6,219.6,1.6,4.0,224.7,0.44,23.2,30.2,"14:36:16",1
"16/08/03","14:50",0.0,33.2,54.8,1002.4,218.8,1.0,2.9,216.2,0.28,22.9,30.6,"14:41:12",1
"16/08/03","15:00",0.0,33.4,53.8,1002.2,216.3,0.3,1.4,227.6,0.26,22.8,30.5,"14:50:32",1
"16/08/03","15:10",0.0,33.7,52.5,1002.4,219.3,1.2,2.7,211.4,0.33,22.7,30.7,"15:04:00",1
"16/08/03","15:20",0.0,33.8,51.4,1002.4,237.1,0.7,2.7,220.8,0.28,22.4,30.6,"15:10:40",1
"16/08/03","15:30",0.0,33.9,53.0,1002.4,188.6,0.1,1.0,206.7,0.23,23.0,30.7,"15:20:40",1
"16/08/03","15:40",0.0,33.0,54.0,1002.4,203.3,0.3,1.2,213.2,0.15,22.5,30.6,"15:36:16",1
"16/08/03","15:50",0.0,33.2,54.7,1001.9,211.4,0.2,0.8,151.9,0.18,22.9,30.7,"15:47:12",1
"16/08/03","16:00",0.0,32.7,55.3,1002.2,326.0,0.5,2.2,358.2,0.12,22.6,30.7,"15:58:08",1
"16/08/03","16:10",0.0,32.3,58.0,1001.9,337.9,0.5,1.6,358.8,0.10,23.0,30.6,"16:05:36",1
"16/08/03","16:20",0.0,32.6,56.5,1001.7,359.8,0.6,2.0,2.1,0.16,22.9,30.2,"16:12:56",1
"16/08/03","16:30",0.0,32.7,56.4,1001.5,327.5,0.5,1.4,228.5,0.14,22.9,30.3,"16:23:20",1
"16/08/03","16:40",0.0,32.6,54.2,1001.9,347.3,1.1,3.3,335.8,0.14,22.2,30.2,"16:38:00",1
"16/08/03","16:50",0.0,32.0,57.1,1001.7,355.7,1.3,3.2,357.5,0.08,22.5,30.3,"16:43:52",1
"16/08/03","17:00",0.4,31.4,64.0,1000.8,350.9,1.0,3.2,358.8,0.05,23.8,30.0,"16:54:24",1
"16/08/03","17:10",0.0,30.3,71.6,1000.0,346.6,0.1,1.1,356.5,0.06,24.6,30.0,"17:08:00",1
"16/08/03","17:20",0.2,29.6,73.1,999.6,351.4,0.5,1.3,353.0,0.09,24.3,30.0,"17:16:32",1
"16/08/03","17:30",0.0,30.0,70.6,999.6,338.8,0.6,2.0,1.5,0.07,24.1,29.9,"17:28:24",1
"16/08/03","17:40",0.0,29.9,64.1,1000.3,352.2,1.0,2.5,347.6,0.05,22.4,30.0,"17:34:00",1
"16/08/03","17:50",0.0,30.0,63.8,1000.3,348.2,1.1,3.7,1.4,0.05,22.4,29.7,"17:43:44",1
"16/08/03","18:00",0.0,29.9,61.6,1000.0,341.7,0.8,3.3,1.7,0.05,21.8,29.7,"17:58:32",1
"16/08/03","18:10",0.0,30.0,62.5,1000.5,353.8,0.7,2.6,42.3,0.04,22.1,29.7,"18:02:16",1
"16/08/03","18:20",0.0,29.8,63.2,1000.0,341.3,0.3,0.8,283.1,0.03,22.1,29.5,"18:10:24",1
"16/08/03","18:30",0.0,29.6,66.7,1000.5,10.5,0.8,1.8,28.5,0.02,22.8,29.3,"18:23:20",1
"16/08/03","18:40",0.0,29.5,66.5,1000.5,2.3,1.0,2.2,358.9,0.01,22.6,29.2,"18:33:44",1
"16/08/03","18:50",0.0,29.1,67.8,1001.2,359.4,0.8,2.4,23.1,0.00,22.6,29.2,"18:48:40",1
"16/08/03","19:00",0.0,28.5,68.5,1001.5,352.0,0.7,2.1,353.6,0.00,22.2,29.0,"18:51:52",1
"16/08/03","19:10",0.0,28.0,70.0,1001.5,340.4,0.8,1.9,2.7,0.00,22.1,29.0,"19:07:12",1
"16/08/03","19:20",0.0,27.5,69.7,1002.2,328.3,1.1,3.2,338.9,0.00,21.5,28.9,"19:16:16",1
"16/08/03","19:30",0.0,27.5,69.6,1002.2,335.4,1.0,2.4,21.5,0.00,21.5,28.7,"19:22:48",1
"16/08/03","19:40",0.0,27.3,70.1,1002.4,327.2,1.0,2.4,351.5,0.00,21.4,28.6,"19:32:48",1
"16/08/03","19:50",0.0,27.1,70.9,1002.6,324.2,1.0,2.2,345.2,0.00,21.4,28.5,"19:40:48",1
"16/08/03","20:00",0.0,27.0,71.8,1002.6,337.2,1.2,2.4,3.8,0.00,21.5,28.3,"19:53:36",1
"16/08/03","20:10",0.0,26.8,72.8,1002.2,334.5,1.1,2.8,346.6,0.00,21.5,28.4,"20:04:56",1
"16/08/03","20:20",0.0,26.7,73.0,1002.2,310.2,1.0,3.4,353.7,0.00,21.5,28.2,"20:12:40",1
"16/08/03","20:30",0.0,26.7,73.1,1002.2,319.3,0.7,1.8,3.4,0.00,21.5,28.1,"20:24:16",1
"16/08/03","20:40",0.0,26.5,73.6,1002.6,288.5,0.5,1.4,359.9,0.00,21.4,28.0,"20:34:08",1
"16/08/03","20:50",0.0,26.4,74.7,1002.9,280.7,0.6,1.6,241.0,0.00,21.6,28.1,"20:44:56",1
"16/08/03","21:00",0.0,26.1,77.2,1002.9,306.1,0.3,0.8,326.6,0.00,21.8,27.9,"20:50:24",1
"16/08/03","21:10",0.0,25.6,78.2,1003.1,313.4,0.3,1.0,313.5,0.00,21.6,27.8,"21:02:56",1
"16/08/03","21:20",0.0,25.5,78.6,1003.6,309.3,0.2,1.1,340.1,0.00,21.5,27.6,"21:10:32",1
"16/08/03","21:30",0.0,25.3,79.5,1003.4,304.9,0.3,0.8,338.9,0.00,21.5,27.6,"21:26:00",1
"16/08/03","21:40",0.0,25.0,80.4,1003.6,300.7,0.5,0.9,320.1,0.00,21.4,27.8,"21:38:48",1
"16/08/03","21:50",0.0,25.0,80.8,1003.8,336.1,0.8,2.0,342.8,0.00,21.5,27.5,"21:49:44",1
"16/08/03","22:00",0.0,25.1,80.8,1003.6,338.4,1.0,2.0,355.4,0.00,21.6,27.3,"21:53:04",1
"16/08/03","22:10",0.0,25.0,81.5,1003.6,322.2,0.7,1.8,346.7,0.00,21.7,27.4,"22:05:20",1
"16/08/03","22:20",0.0,24.7,81.8,1003.8,326.4,0.8,1.7,343.9,0.00,21.4,27.3,"22:16:40",1
"16/08/03","22:30",0.0,24.7,81.9,1003.8,336.6,1.0,1.7,336.0,0.00,21.4,27.2,"22:27:44",1
"16/08/03","22:40",0.0,24.8,81.8,1003.8,341.1,1.5,2.7,352.8,0.00,21.5,27.2,"22:34:08",1
"16/08/03","22:50",0.0,24.8,81.9,1003.8,329.0,1.0,1.9,334.4,0.00,21.5,27.0,"22:49:44",1
"16/08/03","23:00",0.0,24.6,82.6,1003.6,308.5,0.7,1.2,317.5,0.00,21.5,26.9,"22:50:08",1
"16/08/03","23:10",0.0,24.5,82.8,1004.1,329.2,1.0,2.0,344.8,0.00,21.4,27.0,"23:07:44",1
"16/08/03","23:20",0.0,24.4,82.9,1003.8,311.6,0.7,1.6,337.5,0.00,21.3,26.6,"23:19:36",1
"16/08/03","23:30",0.0,24.3,82.5,1003.8,337.1,1.3,2.5,352.5,0.00,21.2,26.8,"23:26:16",1
"16/08/03","23:40",0.0,24.2,82.8,1003.6,307.2,0.8,2.1,342.2,0.00,21.1,26.7,"23:39:36",1
"16/08/03","23:50",0.0,24.2,83.3,1003.6,329.0,1.2,2.4,353.2,0.00,21.2,26.8,"23:40:40",1
"16/08/03","24:00",0.0,24.2,83.6,1004.1,339.6,1.1,2.1,328.0,0.00,21.3,26.7,"23:56:16",1
